Details From PGUM - Guam Intl
To RJAW - IWO JIMA
Flight Number -
Tags generated
Created
Modified
Stats Distance 758 nm / 1,403 km
Max Altitude 34,000 ft / 10,363 m
Waypoints 6
Social Downloads 3
Likes 0
Share VATSIM

Download

Looking for another format? Having issues loading an existing format? Contact us
Advertisement - Login to hide

Notes

Basic altitude profile: - Ascent Rate: 2500ft/min - Ascent Speed: 250kts - Cruise Altitude: 35000ft - Cruise Speed: 420kts - Descent Rate: 1500ft/min - Descent Speed: 250kts Options: - Use NATs: yes - Use PACOTS: yes - Use low airways: yes - Use high airways: yes

Route

PGUM SECEL B586 VASKO RJAW

ID Type Via Altitude Latitude Longitude Leg Dist Tot Dist Heading (true) Name
O PGUM APT - 0 ft / 0 m 13.48387˚ 144.79717˚ - 0 nm - Guam Intl
SECEL FIX - 34,000 ft / 10,363 m 15.12722˚ 144.66639˚ 98 nm 98 nm 356° / 356° -
PAYEE FIX B586 (AWY-HI) 34,000 ft / 10,363 m 17.71167˚ 144.53500˚ 155 nm 254 nm 357° / 357° -
OMLET FIX B586 (AWY-HI) 34,000 ft / 10,363 m 21.00000˚ 142.99000˚ 216 nm 470 nm 336° / 336° -
VASKO FIX B586 (AWY-LO) 8,800 ft / 2,682 m 25.00439˚ 142.03694˚ 246 nm 716 nm 348° / 347° -
O RJAW APT - 0 ft / 0 m 24.78399˚ 141.32272˚ 41 nm 757 nm 251° / 251° IWO JIMA

Altitude Profile

Advertisement - Login to hide

Weather


0- 5 10 15 20 25 30 35+ Temperature / ° C

Clouds and Precipitation
Forecast for 2017-12-16 18:00 UTC. Updated 2 hours ago

Ground ~20,000 ft ~40,000 ft Winds

PGUM

Details ICAO PGUM (GUM)
Name Guam Intl
Region USA (Guam, Northern Mariana Islands)
Timezone Pacific/Guam (UTC+10.0)
Stats Elevation 298 ft / 91 m (AMSL)
Location 13.483874° 144.797171°
Runways 2
Magnetic Variation 0.748° E

METAR

PGUM 161454Z 09007KT 10SM SCT016 SCT021 SCT027 27/27 A2983 RMK AO2 SLP093 T02720267 58012

Decode

TAF

TAF PGUM 161140Z 1612/1718 08008KT P6SM VCSH FEW015 SCT025 BKN120 FM162300 10015KT P6SM FEW018 SCT025 BKN120

Decode

Departure Runways

ID Width Length Bearing (true) Bearing (mag) Surface Threshold Offset Overrun Length
06L 150 ft / 46 m 10,016 ft / 3,053 m 64.81° 64.06° Asphalt 0 ft / 0 m 1,002 ft / 305 m
06R 150 ft / 46 m 10,015 ft / 3,053 m 64.81° 64.06° Asphalt 0 ft / 0 m 400 ft / 122 m
24L 150 ft / 46 m 10,015 ft / 3,053 m 244.82° 244.07° Asphalt 1,004 ft / 306 m 300 ft / 91 m
24R 150 ft / 46 m 10,016 ft / 3,053 m 244.82° 244.07° Asphalt 0 ft / 0 m 450 ft / 137 m

RJAW

Details ICAO RJAW (IWO)
Name IWO JIMA
Region Japan
Timezone Asia/Tokyo (UTC+9.0)
Stats Elevation 384 ft / 117 m (AMSL)
Location 24.783986° 141.322722°
Runways 1
Magnetic Variation 3.566° W

METAR

RJAW 161500Z 11014KT 9999 FEW010 BKN015 BKN080 22/21 Q1014 RMK 2CU010 6CU015 7AC080 A2995

Decode

TAF

Not found

Destination Runways

ID Width Length Bearing (true) Bearing (mag) Surface Threshold Offset Overrun Length
07 200 ft / 61 m 8,676 ft / 2,645 m 67.97° 71.54° Asphalt 0 ft / 0 m 550 ft / 168 m
25 200 ft / 61 m 8,676 ft / 2,645 m 247.98° 251.55° Asphalt 0 ft / 0 m 550 ft / 168 m

Popular Alternatives